Regional Weather Roundup
Issued by NWS

Home | Current Version | Previous Version | Text Only | Print | Product List | Glossary Off
Versions: 1 2 3 4 5 6 7 8 9 10 11 12 13 14 15 16 17 18 19 20 21 22 23 24 25 26 27 28 29 30 31 32 33 34 35 36 37 38 39 40 41 42 43 44 45 46 47 48 49 50

000
ASUS43 KMKX 301128
RWRWI

WISCONSIN REGIONAL WEATHER ROUNDUP
NATIONAL WEATHER SERVICE MILWAUKEE/SULLIVAN WI
600 AM CDT SAT MAY 30 2015

NOTE: "FAIR" INDICATES FEW OR NO CLOUDS BELOW 12,000 FEET WITH NO
SIGNIFICANT WEATHER AND/OR OBSTRUCTIONS TO VISIBILITY.

WIZ001-002-006>008-014>016-023>028-301200-
NORTHWEST WISCONSIN

CITY           SKY/WX    TMP DP  RH WIND       PRES   REMARKS
SUPERIOR ARPT  CLEAR     44  37  75 N6        30.20R
ASHLAND        CLOUDY    47  41  80 N13       30.16R
HAYWARD        CLEAR     45  40  82 N8        30.14R
SIREN          CLEAR     43  38  84 N9        30.17R
CUMBERLAND     MOCLDY    45  37  76 N13G18    30.13R
RICE LAKE      PTCLDY    47  40  76 N13G18    30.14R
CHETEK         CLOUDY    49  45  87 NW7       30.12R
LADYSMITH      CLOUDY    49  46  87 N12       30.12R
EAU CLAIRE     CLOUDY    51  45  79 N10       30.08R
MENOMONIE      CLOUDY    50  45  83 N10       30.11R
NEW RICHMOND   PTCLDY    46  41  84 N12       30.14R
OSCEOLA        PTCLDY    44  43  96 N8        30.18R
$$

WIZ003>005-009-010-017-018-301200-
NORTH CENTRAL WISCONSIN

CITY           SKY/WX    TMP DP  RH WIND       PRES   REMARKS
MANITOWISH WTR CLOUDY    46  46 100 N12G17    30.10R
ARBOR VITAE    CLOUDY    49  48  95 N7        30.09R FOG
WOODRUFF       CLOUDY    49  48  95 N7        30.09R FOG
RHINELANDER    CLOUDY    51  48  89 N8G17     30.07R
EAGLE RIVER    CLOUDY    48  48  98 NE9G16    30.07R
LAND O LAKES   CLOUDY    49  48  97 N9        30.09R FOG
PHILLIPS       CLOUDY    47  45  93 N10       30.10R
TOMAHAWK       CLOUDY    48  47  97 N6        30.08R FOG
MEDFORD        CLOUDY    48  47  97 N9        30.07R FOG
MERRILL        CLOUDY    52  51  98 N7        30.06R
$$

WIZ029-030-035-036-043>047-301200-
CENTRAL WISCONSIN

CITY           SKY/WX    TMP DP  RH WIND       PRES   REMARKS
WAUSAU         CLOUDY    54  49  83 N7        30.03R
MOSINEE        CLOUDY    54  52  94 MISG      30.04R
MARSHFIELD     LGT RAIN  54  50  86 N10G20    30.03R
STEVENS POINT  DRIZZLE   54  52  94 N16       30.03R
WAUPACA        LGT RAIN  55  54  95 NE10G21   30.02R
WAUTOMA        LGT RAIN  57  57 100 NE13G18   30.00R FOG
WISC RAPIDS    LGT RAIN  58  53  84 NE16      30.02R
CAMP DOUGLAS   LGT RAIN  57  57 100 N13       29.99R
$$

WIZ011>013-019>022-031-037>040-048>050-301200-
NORTHEAST WISCONSIN

CITY           SKY/WX    TMP DP  RH WIND       PRES   REMARKS
ANTIGO         CLOUDY    50  48  93 N8        30.05R
SHAWANO        LGT RAIN  54  53  95 NE12      30.03R
OCONTO         CLOUDY    51  51 100 NE6       30.03R
STURGEON BAY   CLOUDY    52  46  82 N14       30.05R
GREEN BAY      LGT RAIN  54  52  93 NE14G25   30.02R FOG
MANITOWOC      LGT RAIN  53  51  93 NE8G18    30.02R
APPLETON       LGT RAIN  55  55 100 N13       30.00R FOG
CLINTONVILLE   LGT RAIN  52  50  93 NE9G17    30.02R
OSHKOSH        LGT RAIN  58  55  90 NE14G24   29.98R FOG
$$

WIZ032>034-041-042-053>061-301200-
SOUTHWEST WISCONSIN

CITY           SKY/WX    TMP DP  RH WIND       PRES   REMARKS
LA CROSSE      CLOUDY    57  53  86 N15G28    30.02R
SPARTA         DRIZZLE   55  53  93 N9G16     30.03R
VIROQUA        CLOUDY    57  57 100 N14       29.99R
BOSCOBEL       CLOUDY    64  59  83 N9        29.95R
PRAIRIE DU CHI CLOUDY    62  58  87 NW10G18   29.96R
PLATTEVILLE    CLOUDY    65  64  96 SW6       29.94R
$$

WIZ056-057-062-063-064-067-068-301200-
SOUTH CENTRAL WISCONSIN

CITY           SKY/WX    TMP DP  RH WIND       PRES   REMARKS
REEDSBURG      DRIZZLE   61  60  97 N10       29.94R
BARABOO/DELLS  LGT RAIN  63  62  96 N6        29.94R
LONE ROCK      CLOUDY    67  64  90 VRB7      29.93R
MINERAL POINT  CLOUDY    64  63  94 S3        29.94R
MADISON        CLOUDY    67  63  87 SW3       29.93R
MIDDLETON      CLOUDY    66  65  95 CALM      29.93R
WATERTOWN      CLOUDY   N/A N/A N/A SE3       29.93R
MONROE         CLOUDY    64  61  88 SW6       29.95R
JANESVILLE     CLOUDY    66  64  94 SW6       29.94R
$$

WIZ051-052-058>065-066-070>072-301200-
SOUTHEAST WISCONSIN

CITY           SKY/WX    TMP DP  RH WIND       PRES   REMARKS
MILWAUKEE      LGT RAIN  64  61  90 NE6       29.96R FOG
WAUKESHA       LGT RAIN  64  63  94 CALM      29.96R
MILWAUKEE/TIMM RAIN      63  61  94 E5        29.97R
RACINE         LGT RAIN  65  63  93 CALM      29.97R FOG
BURLINGTON     LGT RAIN  64  63  97 CALM      29.95R
KENOSHA        LGT RAIN  66  64  93 W5        29.95R
FOND DU LAC    LGT RAIN  59  57  93 E16G26    29.96R
SHEBOYGAN      CLOUDY    53  51  93 NE18      29.99R
WEST BEND      LGT RAIN  55  54  94 NE15G21   29.97R
JUNEAU         CLOUDY    64  63  97 SE6       29.95R
$$

LSZ147-162-301200-
LAKE SUPERIOR

STATION/POSITION TIME  TEMP    WIND        PRES    WAVE
                       AIR SEA DIR/SP/G            HT/PER
                 (UTC) (F)     (DEG/KT/KT) (MB)    (FT/S)
W MID LAKE BUOY  1050   40 37   20/  8/ 10   N/A     1/ 4
DEVILS ISLAND    1100   45      10/ 18/ 21   N/A
PORT WING        1000   46     350/  4/  6   N/A
SAXON HARBOR     1000   49     320/ 11/ 13   N/A
$$

LMZ867-665-643>646-301200-
LAKE MICHIGAN

STATION/POSITION TIME  TEMP    WIND        PRES    WAVE
                       AIR SEA DIR/SP/G            HT/PER
                 (UTC) (F)     (DEG/KT/KT) (MB)    (FT/S)
CHAMBERS ISLAND  1000   53     340/ 10/ 13   N/A
N MID LAKE BUOY  1050   41 37  330/ 12/ 14   N/A     1/ 3
NORTHPORT PIER   1000   52     350/ 15/ 19   N/A
SISTER BAY       1018   50     360/ 14/ 18   N/A
ALGOMA LAKESHORE 0923          360/ 10/ 15   N/A
KEWAUNEE LAKESHO 1000   48      30/  5/ 10   N/A
SHEBOYGAN LAKESH 1100   49      10/ 16/ 17   N/A
PORT WASHINGTON  1040   53      30/ 11/ 16   N/A
ATWATER BUOY     1000   53     350/  2/  4   N/A
MILWAUKEE LAKESH 1000   58     350/  1/  1   N/A
S MID LAKE BUOY  1050   47 38  230/  4/  6   N/A     1
KENOSHA   LAKESH 1100   62      70/  3/  4   N/A
$$

TC  - TEMPERATURE IN CELSIUS
VSB - VISIBILITY IN STATUTE MILES
WCI - WIND CHILL INDEX
HX  - HEAT INDEX



USA.gov is the U.S. government's official web portal to all federal, state and local government web resources and services.